"Pseudo-MPEC" for C0GP3R2

Created 2019 Apr 22 3:07:10 UT using Find_Orb

Click here for an explanation of pseudo-MPECs

 
 Astrometry: 
     C0GP3R2  C2019 04 14.14944 12 54 10.32 +23 19 58.7    ~4J4b 20.1 GVNEOCPG96
     C0GP3R2  C2019 04 14.15614 12 54 12.68 +23 19 00.6    ~4E4I 19.8 GVNEOCPG96
     C0GP3R2  C2019 04 14.16133 12 54 14.50 +23 18 15.1    ~4E4I 19.5 GVNEOCPG96
     C0GP3R2  C2019 04 14.16654 12 54 16.31 +23 17 30.1    ~4E4I       VNEOCPG96
     C0GP3R2  C2019 04 14.19205612 54 24.74 +23 13 45.7    ~4E5X 19.8 GVNEOCPH01
     C0GP3R2  C2019 04 14.19851512 54 26.95 +23 12 49.2    ~4E5X 20.0 GVNEOCPH01
     C0GP3R2  C2019 04 14.20830712 54 30.28 +23 11 23.4    ~4E5X 19.8 GVNEOCPH01
     C0GP3R2  C2019 04 14.21683912 54 33.19 +23 10 08.6    ~4E5X 20.0 GVNEOCPH01
     C0GP3R2  C2019 04 14.30314 12 55 02.60 +22 57 29.4    ~4E7X 19.6 GVNEOCPI52
     C0GP3R2  C2019 04 14.30361 12 55 02.76 +22 57 25.3    ~4E7X 19.6 GVNEOCPI52
     C0GP3R2  C2019 04 14.30409 12 55 02.90 +22 57 21.2    ~4E7X 19.7 GVNEOCPI52
     C0GP3R2  C2019 04 14.30456 12 55 03.07 +22 57 16.8    ~4E7X 19.5 GVNEOCPI52
     C0GP3R2  C2019 04 14.43519 12 55 47.43 +22 37 50.6    ~4EAm 19.9 GVNEOCPI52
     C0GP3R2  C2019 04 14.43566 12 55 47.59 +22 37 46.1    ~4EAm 19.6 GVNEOCPI52
     C0GP3R2  C2019 04 14.43614 12 55 47.76 +22 37 41.9    ~4EAm 20.1 GVNEOCPI52
     C0GP3R2  C2019 04 14.43661 12 55 47.88 +22 37 37.8    ~4EAm 20.4 GVNEOCPI52
     C0GP3R2 pC2019 04 14L7osq/JU_wX1s0juAstrometrylAd.@eDko_qYUwpKqA4AwsrU+EL01
     C0GP3R2 pC2019 04 14?OA1J_?j9^i9P8R!q.xh3o/Gk,@=;%c[T^F$w@I6$l*T*\/D.D1WL01
     C0GP3R2 pC2019 04 14SXH:S@/X]D3AEkre:.i`8xkO-GM;kredacted;_sxqulJo]RJsE;L01
     C0GP3R2 pC2019 04 14kd0TTpFR;u9b#USb(R3WD^Mu%UES:clickxe$Rsuy%6NSQM,m/8'L01
     C0GP3R2 ^C2019 04 15g]?:7:sl_LGS%2XW_-0dC9(Pj0]8?u?,2^JRtkcD%Ohere74/GR-695
     C0GP3R2 ^C2019 04 15:57+EtwdpK\T%,,yIQTfuYRJ*;r]2L:qqhn58d:urfor@'$s*/Mq695
     C0GP3R2 ^C2019 04 15+-37W=,)T/p#AQkjg*.[%'!`+uk;b/OkAlw$!,N'cJYU:9H[rO7X695
     C0GP3R2  C2019 04 15.28258 13 00 57.12 +20 33 48.5    ~4F73 18.3 GVNEOCPI52
     C0GP3R2  C2019 04 15.28478 13 00 57.79 +20 33 31.0    ~4F73 19.8 GVNEOCPI52
     C0GP3R2  C2019 04 15.28621 13 00 58.21 +20 33 18.4    ~4F73 19.5 GVNEOCPI52
     C0GP3R2  C2019 04 15.28663 13 00 58.35 +20 33 14.9    ~4F73 19.2 GVNEOCPI52
     C0GP3R2  C2019 04 16.16806 13 06 04.47 +18 25 29.2    ~4G4X       VNEOCPI52
     C0GP3R2  C2019 04 16.16848 13 06 04.73 +18 25 24.9    ~4G4X 19.9 GVNEOCPI52
     C0GP3R2  C2019 04 16.16931 13 06 05.10 +18 25 18.9    ~4G4X 21.6 GVNEOCPI52
     C0GP3R2  C2019 04 19.15841513 21 28.14 +11 31 08.5    ~4J4b 19.3 GVNEOCPH01
     C0GP3R2  C2019 04 19.16156913 21 28.97 +11 30 43.9    ~4J4b 20.4 GVNEOCPH01
     C0GP3R2  C2019 04 19.17441613 21 32.32 +11 29 02.6    ~4J4b 19.9 GVNEOCPH01
     C0GP3R2  C2019 04 19.18012813 21 33.80 +11 28 17.6    ~4J4b 19.4 GVNEOCPH01
     C0GP3R2 KC2019 04 20.86909813 29 10.62 +07 51 15.5    ~4KNq 19.9 GVNEOCPJ95
     C0GP3R2 KC2019 04 20.88080913 29 13.46 +07 49 48.6    ~4KNq 20.0 GVNEOCPJ95
     C0GP3R2 BC2019 04 20.93470613 29 26.30 +07 43 09.6    ~4KNq 20.1 GVNEOCPJ95
     C0GP3R2 KC2019 04 20.95946513 29 32.14 +07 40 06.1    ~4KNq 19.4 GVNEOCPJ95
     C0GP3R2 KC2019 04 215fI*he^R:OMaL+b3Ziv^+RVDT8p^)OMoR17oi2DpsJ[76%4t's^rH21
     C0GP3R2 KC2019 04 21ZPh3=E(JVshKcTIYNN5/eKhSypM%.y`8gXK_$-/4Q`C+cW37lC#eH21
     C0GP3R2 KC2019 04 21V=[]CC\][$;`csmL.tWHq1NP#AM986VNNSqd6-h,m+Y;Wg5hi`+UH21
     C0GP3R2 KC2019 04 2155XVb^ITexplanationN%(YTgIa//.;iIL08;yUh53xQKG+SLhV_A17
     C0GP3R2 KC2019 04 21Bwc],rk!aoNraCL`C'N2nc?MHLT6\92YVo@O;A6dIbKl42io:!cAA17
     C0GP3R2 KC2019 04 21\Hg/Wkj%L_y!TtlD.jjCV4lJiVE.lnOUp,!fvZ96YnjS`cQISvlcA17
     C0GP3R2 KC2019 04 21.98209213 33 47.13 +05 36 26.3    ~4M0q 19.6 GVNEOCPJ95
     C0GP3R2 KC2019 04 21.99533213 33 50.00 +05 34 52.0    ~4M0q 19.6 GVNEOCPJ95
     C0GP3R2 KC2019 04 22.01067113 33 53.44 +05 33 04.1    ~4M0q 20.2 GVNEOCPJ95

Station data:
(695) Kitt Peak  (N31.958398 W111.594670)  US/Arizona.
(A17) Guidestar Observatory, Weinheim  (N49.545393 E8.681520)  Germany.
(G96) Mt. Lemmon Survey  (N32.442754 W110.788720)  US/Arizona.  Observers T.
   A. Pruyne, B. M. Africano, E. J. Christensen, G. A. Farneth, D. C. Fuls,
   A. R. Gibbs, A. D. Grauer, H. Groeller, J. A. Johnson, R. A. Kowalski, S.
   M. Larson, G. J. Leonard, R. L. Seaman, F. C. Shelly. 1.5-m reflector +
   10K CCD.
(H01) Magdalena Ridge Observatory, Socorro  (N33.984833 W107.189333)  US/New
   Mexico.  Observers W. H. Ryan, E. V. Ryan. Measurer W. H. Ryan. 2.4-m
   f/8.9 reflector + CCD.
(H21) Astronomical Research Observatory, Westfield  (N39.483057 W87.968270)
   US/Illinois. 0.76-m f/3.0 astrograph + CCD.
(I52) Steward Observatory, Mt. Lemmon Station  (N32.442547 W110.788920)
   US/Arizona.  Observers T. A. Pruyne, B. M. Africano, E. J. Christensen, G.
   A. Farneth, D. C. Fuls, A. R. Gibbs, A. D. Grauer, H. Groeller, J. A.
   Johnson, R. A. Kowalski, S. M. Larson, G. J. Leonard, R. L. Seaman, F. C.
   Shelly. 1.0-m reflector + CCD.
(J95) Great Shefford  (N51.474969 W1.447003)  UK.  Observer P. Birtwhistle.
   0.40-m f/6.0 Schmidt-Cassegrain + CCD.
(L01) Višnjan Observatory, Tičan  (N45.290900 E13.749300)  Croatia.
   Observers K. Korlević, E. Pettarin. Measurer E. Pettarin. 1.0-m f/2.9
   reflector + CCD.

Orbital elements:  C0GP3R2
   Perihelion 2019 Mar 23.837470 +/- 0.0108 TT = 20:05:57 (JD 2458566.337470)
Epoch 2019 Apr 22.0 TT = JDT 2458595.5   Earth MOID: 0.0841   Ma: 0.0681
M   8.35513296 +/- 0.048            (J2000 ecliptic)          AutoNEOCP
n   0.28650233 +/- 0.00155          Peri.  134.95918 +/- 0.0043
a   2.27885802 +/- 0.00821          Node    43.25707 +/- 0.0027
e   0.5390783 +/- 0.0016            Incl.    6.15932 +/- 0.013
P   3.44                   H 23.9   G  0.15   U  8.4  
q 1.05037495 +/- 0.000149    Q 3.50734109 +/- 0.0164
From 47 observations 2019 Apr. 14-22; mean residual 0".42
Residuals in arcseconds: 
190414 G96  .44-  .16-    190414 L01  .03-  .00     190419 H01  .18+  .27-    
190414 G96  .17-  .06+    190414 L01  .53-  .32+    190419 H01  .17+  .20-    
190414 G96  .01+  .23-    190414 L01  .34+  .30-    190420 J95  .03-  .12-    
190414 G96  .02+  .17+    190414 L01  .28+  .38-    190420 J95  .16+  .20-    
190414 H01  .11-  .13-    190415 695  .22+  .26+    190420 J95  .10-  .25+    
190414 H01  .07-  .08-    190415 695  .13+  .52+    190420 J95  .15-  .19+    
190414 H01  .17-  .06-    190415 695  .23+  .30+    190421 H21  .35+  .03+    
190414 H01  .01-  .01+    190415 I52  .86+  1.7-    190421 H21  .38-  .54+    
190414 I52  .04+  .19-    190415 I52  .48+  .07+    190421 H21  .23-  .48+    
190414 I52  .07+  .13-    190415 I52  .02+  .02-    190421 A17  .14+  .23-    
190414 I52  .21-  .03+    190415 I52  .12+  .15+    190421 A17  .27+  .66+    
190414 I52  .04-  .21-    190416 I52  2.0-  .58+    190421 A17  .31-  .24-    
190414 I52  .19+  .20+    190416 I52  .19-  .15-    190421 J95  .43+  .08-    
190414 I52  .15+  .08-    190416 I52  1.4+  .92+    190421 J95  .51-  .49-    
190414 I52  .19+  .03+    190419 H01  .07+  .56-    190422 J95  .14+  .34+    
190414 I52  .41-  .16+    190419 H01  .14+  .29-    

Ephemerides (geocentric):
Date (UTC) HH   RA              Dec         delta   r     elong  mag " sig PA
---- -- -- --  -------------   -----------  ------ ------ -----  --- ---- ---
2019 04 22 03  13 34 21.551   +05 20 33.73  .10958 1.1096 161.8 20.2 .141 163
2019 04 22 04  13 34 31.575   +05 15 40.41  .10970 1.1098 161.8 20.2 .141 163
2019 04 22 05  13 34 41.575   +05 10 47.64  .10982 1.1100 161.9 20.2 .140 163
2019 04 22 06  13 34 51.553   +05 05 55.44  .10994 1.1101 162.0 20.2 .140 163
2019 04 22 07  13 35 01.507   +05 01 03.80  .11006 1.1103 162.0 20.2 .140 163
2019 04 22 08  13 35 11.439   +04 56 12.71  .11019 1.1104 162.1 20.2 .139 163
2019 04 22 09  13 35 21.348   +04 51 22.19  .11031 1.1106 162.2 20.2 .139 163
2019 04 22 10  13 35 31.233   +04 46 32.23  .11043 1.1108 162.2 20.2 .139 162
2019 04 22 11  13 35 41.097   +04 41 42.83  .11055 1.1109 162.3 20.2 .138 162
2019 04 22 12  13 35 50.937   +04 36 53.99  .11067 1.1111 162.3 20.2 .138 162
2019 04 22 13  13 36 00.755   +04 32 05.71  .11080 1.1113 162.4 20.2 .138 162
2019 04 22 14  13 36 10.550   +04 27 18.00  .11092 1.1114 162.5 20.2 .137 162
2019 04 22 15  13 36 20.322   +04 22 30.85  .11104 1.1116 162.5 20.2 .137 162
2019 04 22 16  13 36 30.072   +04 17 44.27  .11117 1.1117 162.6 20.2 .137 161
2019 04 22 17  13 36 39.800   +04 12 58.24  .11129 1.1119 162.7 20.2 .136 161
2019 04 22 18  13 36 49.505   +04 08 12.79  .11142 1.1121 162.7 20.2 .136 161
2019 04 22 19  13 36 59.188   +04 03 27.89  .11154 1.1122 162.8 20.2 .136 161
2019 04 22 20  13 37 08.849   +03 58 43.56  .11167 1.1124 162.9 20.2 .136 161
2019 04 22 21  13 37 18.487   +03 53 59.80  .11179 1.1126 162.9 20.2 .135 160
2019 04 22 22  13 37 28.103   +03 49 16.60  .11192 1.1127 163.0 20.2 .135 160
2019 04 22 23  13 37 37.698   +03 44 33.97  .11204 1.1129 163.0 20.2 .135 160
2019 04 23 00  13 37 47.270   +03 39 51.90  .11217 1.1131 163.1 20.2 .134 160
2019 04 23 01  13 37 56.820   +03 35 10.40  .11230 1.1132 163.2 20.2 .134 159
2019 04 23 02  13 38 06.348   +03 30 29.46  .11243 1.1134 163.2 20.2 .134 159
2019 04 23 03  13 38 15.855   +03 25 49.09  .11255 1.1136 163.3 20.2 .133 159
2019 04 23 04  13 38 25.339   +03 21 09.28  .11268 1.1137 163.3 20.2 .133 159
2019 04 23 05  13 38 34.802   +03 16 30.04  .11281 1.1139 163.4 20.2 .133 158
2019 04 23 06  13 38 44.243   +03 11 51.37  .11294 1.1141 163.5 20.2 .133 158
2019 04 23 07  13 38 53.663   +03 07 13.26  .11307 1.1142 163.5 20.2 .132 158
2019 04 23 08  13 39 03.061   +03 02 35.72  .11320 1.1144 163.6 20.2 .132 158
2019 04 23 09  13 39 12.437   +02 57 58.75  .11333 1.1146 163.6 20.2 .132 157
2019 04 23 10  13 39 21.792   +02 53 22.35  .11346 1.1147 163.7 20.2 .132 157
2019 04 23 11  13 39 31.126   +02 48 46.51  .11359 1.1149 163.8 20.2 .131 157
2019 04 23 12  13 39 40.438   +02 44 11.23  .11372 1.1151 163.8 20.2 .131 156
2019 04 23 13  13 39 49.728   +02 39 36.53  .11385 1.1152 163.9 20.2 .131 156
2019 04 23 14  13 39 58.998   +02 35 02.39  .11398 1.1154 163.9 20.2 .131 156
2019 04 23 15  13 40 08.246   +02 30 28.81  .11411 1.1156 164.0 20.2 .131 156
2019 04 23 16  13 40 17.474   +02 25 55.81  .11424 1.1157 164.0 20.2 .130 155
2019 04 23 17  13 40 26.680   +02 21 23.37  .11438 1.1159 164.1 20.2 .130 155
2019 04 23 18  13 40 35.865   +02 16 51.49  .11451 1.1161 164.2 20.2 .130 155
2019 04 23 19  13 40 45.029   +02 12 20.19  .11464 1.1162 164.2 20.2 .130 154
2019 04 23 20  13 40 54.172   +02 07 49.45  .11478 1.1164 164.3 20.2 .130 154
2019 04 23 21  13 41 03.295   +02 03 19.27  .11491 1.1166 164.3 20.2 .130 154
2019 04 23 22  13 41 12.396   +01 58 49.67  .11505 1.1167 164.4 20.2 .129 153
2019 04 23 23  13 41 21.477   +01 54 20.63  .11518 1.1169 164.4 20.3 .129 153
2019 04 24 00  13 41 30.537   +01 49 52.15  .11531 1.1171 164.5 20.3 .129 153
2019 04 24 01  13 41 39.576   +01 45 24.24  .11545 1.1172 164.6 20.3 .129 152
2019 04 24 02  13 41 48.595   +01 40 56.90  .11559 1.1174 164.6 20.3 .129 152